Location: Gniazdowice
(50.2124°N, 20.2673°E)
Time: 13:52:28
(UTC+00:00)

COSMOS 2499 DEB - Visible Passes

Search period start: 03 October 2024 00:00
Search period end: 13 October 2024 00:00
Orbit: 894 x 1172 km, 82.4° (Epoch: 01 October)

Date Brightness Start Highest point End Pass type
(mag) Time Alt. Az. Time Alt. Az. Time Alt. Az.
03 Oct ? 01:05:34 10° NNE 01:09:40 18° ENE 01:13:38 10° E visible
03 Oct ? 02:51:14 10° N 02:57:24 90° ESE 03:03:14 10° S visible
03 Oct ? 16:34:53 10° SSW 16:41:45 57° WNW 16:48:16 10° N visible
03 Oct ? 18:26:53 10° W 18:29:57 13° NW 18:32:57 10° NNW visible
04 Oct ? 01:47:12 10° N 01:52:50 37° ENE 01:58:12 10° SE visible
04 Oct ? 03:33:57 10° NNW 03:39:34 41° W 03:44:58 10° SSW visible
04 Oct ? 17:18:39 10° WSW 17:24:30 29° WNW 17:30:07 10° N visible
05 Oct ? 00:43:51 10° NNE 00:47:29 16° NE 00:51:01 10° E visible
05 Oct ? 02:29:13 10° N 02:35:19 80° E 02:41:09 10° SSE visible
05 Oct ? 18:03:55 10° W 18:07:30 15° NW 18:10:58 10° NNW visible
06 Oct ? 01:24:55 10° N 01:30:18 32° ENE 01:35:29 10° SE visible
06 Oct ? 03:11:26 10° NNW 03:17:10 47° W 03:22:41 10° SSW visible
06 Oct ? 16:55:45 10° SW 17:01:46 32° WNW 17:07:31 10° N visible
07 Oct ? 00:21:28 10° NNE 00:24:29 14° NE 00:27:26 10° E visible
07 Oct ? 02:06:25 10° N 02:12:27 70° ENE 02:18:14 10° SSE visible
07 Oct ? 03:54:07 10° NW 03:58:25 21° W 04:02:37 10° SW visible
07 Oct ? 17:40:13 10° W 17:44:15 16° NW 17:48:10 10° NNW visible
08 Oct ? 01:01:52 10° N 01:06:58 28° ENE 01:11:55 10° ESE visible
08 Oct ? 02:48:10 10° NNW 02:53:58 54° W 02:59:36 10° SSW visible
08 Oct ? 16:32:04 10° SW 16:38:15 36° WNW 16:44:07 10° N visible
08 Oct ? 23:58:32 10° NNE 00:00:41 12° NE 00:02:49 10° ENE visible
09 Oct ? 01:42:52 10° N 01:48:48 59° ENE 01:54:30 10° SSE visible
09 Oct ? 03:30:15 10° NNW 03:34:54 24° W 03:39:27 10° SW visible
09 Oct ? 17:15:47 10° W 17:20:14 18° WNW 17:24:33 10° NNW visible
10 Oct ? 00:38:04 10° N 00:42:50 24° ENE 00:47:30 10° ESE visible
10 Oct ? 02:24:07 10° NNW 02:29:59 64° W 02:33:42 23° S visible
10 Oct ? 04:14:30 10° WNW 04:15:15 10° WNW 04:16:00 10° W visible
11 Oct ? 01:18:34 10° N 01:24:21 50° ENE 01:25:37 43° ESE visible
11 Oct ? 03:05:38 10° NNW 03:10:36 29° W 03:11:14 28° W visible
11 Oct ? 16:50:35 10° WSW 16:55:26 21° WNW 17:00:06 10° NNW visible
12 Oct ? 00:13:33 10° NNE 00:17:54 21° ENE 00:18:45 20° ENE visible
12 Oct ? 01:59:19 10° NNW 02:04:23 64° NW 02:04:23 64° NW visible
12 Oct ? 03:48:15 10° NW 03:50:02 12° WNW 03:50:02 12° WNW visible
12 Oct ? 17:36:20 10° WNW 17:37:08 10° NW 17:37:56 10° NW visible
